This is the latest recevied weather packets stored in our database for station/object SR5MRF. If no packets are shown the sender has not sent any weather packets the latest 10 day(s).
| Time | Temp. | Humidity | Pressure | Rain* | Wind** | Luminosity | Snow |
|---|---|---|---|---|---|---|---|
| 1777790205 | 24.44° C | 38% | 1016.2 hPa | 0 mm | - | - | - |
| 1777789785 | 23.33° C | 40% | 1016.1 hPa | 0 mm | - | - | - |
| 1777789726 | 23.33° C | 40% | 1016.2 hPa | 0 mm | - | - | - |
| 1777789365 | 22.78° C | 42% | 1016.2 hPa | 0 mm | - | - | - |
| 1777789126 | 22.22° C | 42% | 1016.2 hPa | 0 mm | - | - | - |
| 1777788945 | 22.22° C | 43% | 1016.3 hPa | 0 mm | - | - | - |
| 1777788525 | 20.56° C | 45% | 1016.3 hPa | 0 mm | - | - | - |
| 1777788105 | 20° C | 48% | 1016.4 hPa | 0 mm | - | - | - |
| 1777787926 | 19.44° C | 48% | 1016.4 hPa | 0 mm | - | - | - |
| 1777787685 | 18.89° C | 50% | 1016.4 hPa | 0 mm | - | - | - |
| 1777787326 | 17.22° C | 54% | 1016.3 hPa | 0 mm | - | - | - |
| 1777787265 | 16.67° C | 55% | 1016.4 hPa | 0 mm | - | - | - |
| 1777786845 | 15° C | 57% | 1016.5 hPa | 0 mm | - | - | - |
| 1777786425 | 13.89° C | 57% | 1016.4 hPa | 0 mm | - | - | - |
| 1777786126 | 13.89° C | 58% | 1016.6 hPa | 0 mm | - | - | - |
| 1777786005 | 13.89° C | 59% | 1016.5 hPa | 0 mm | - | - | - |
| 1777785585 | 13.33° C | 59% | 1016.5 hPa | 0 mm | - | - | - |
| 1777785165 | 12.78° C | 60% | 1016.5 hPa | 0 mm | - | - | - |
| 1777784745 | 12.78° C | 60% | 1016.6 hPa | 0 mm | - | - | - |
| 1777784325 | 12.22° C | 61% | 1016.6 hPa | 0 mm | - | - | - |
| 1777783905 | 11.67° C | 62% | 1016.8 hPa | 0 mm | - | - | - |
| 1777783485 | 11.67° C | 63% | 1016.6 hPa | 0 mm | - | - | - |
| 1777783126 | 11.11° C | 63% | 1016.7 hPa | 0 mm | - | - | - |
| 1777783065 | 11.11° C | 63% | 1016.6 hPa | 0 mm | - | - | - |
| 1777782645 | 11.11° C | 63% | 1016.7 hPa | 0 mm | - | - | - |
* Rain latest hour (hover to see other rain measurements)
** Current wind speed in m/s (hover to see current wind gust speed)